Погода в Омолоне

Россия / Чукотский автономный округ     65°14′08″N   160°32′15″E
В апреле 2022 года жителям России запретили посещать сайт meteo.paraplan.net по решению Генеральной прокуратуры. Аудитория сайта уменьшилась в 10 раз. Владельцы сайта не видят смысла в поддержке погодного сервера в таких условиях. Сайт будет закрыт в октябре.
темп.,
°C
ветер,
м/с
пор.,
м/с
влажн.,
%
обл.,
%
осадки,
мм/ч
давл.,
гПа
погр.,
м
6 октября, чт
чт600:00−5сз0096100 0.7 98532
03:00−5сз2297100 4.2 98076
06:00−5зсз2297100 8.3 97888
09:00−5зсз3696100 2.2 979305
12:00−5зсз5793100 2.8 980516
15:00−5зсз3594100 0.8 981443
18:00−5з2594100 1.4 982255
21:00−7юз4587100 0.2 983100
7 октября, пт
пт700:00−6з71293100 0.9 985512
03:00−6зсз91589100 0.4 988541
06:00−6зсз101589100 0.6 993604
09:00−6зсз111589100 0.1 997620
12:00−6зсз101387100 0.1 1001680
15:00−5зсз10138895 0.0 1004666
18:00−6зсз91387100 0.0 1008363
21:00−9зсз6890100 0.0 1011130
8 октября, сб
сб800:00−13зсз229379 0.0 101313
03:00−18всв019998 0.0 10159
06:00−19юв1110088 0.0 101711
09:00−17юв119793 0.1 101739
12:00−12юв229075 0.1 1017194
15:00−10вюв238768 0.0 1015262
18:00−15в22967 0.0 10159
21:00−19ююв119935 0.0 10169
9 октября, вс
вс900:00−22ююв1110068 0.0 10179
03:00−23ююв1110083 0.0 10189
06:00−24ю119982 0.0 10199
09:00−24ююв119880 0.0 10209
12:00−17вюв119097 0.0 1019111
15:00−14вюв1185100 0.0 1018139
18:00−17св119498 0.0 10189
21:00−19сз019787 0.0 10189
10 октября, пн
пн1000:00−20ююв119978 0.0 10199
03:00−22ююв1110078 0.0 10189
06:00−24ююв1110082 0.0 10199
09:00−23юв119982 0.0 101920
12:00−18юв009062 0.0 1018109
15:00−14ссв008640 0.0 1018127
18:00−18юв009766 0.0 10199
21:00−20ююв1110058 0.0 10219